CW1172 Weather Reports


Display with metric or nautical units.
time (UTC)temp
F
wind
direction
speed
MPH
gust
MPH
rain 1hr
in
rain 24hr
in
rain mn
in
humidity
%
barometer
mb
20260508171514 59 296 0.0 0.0 0.00 0.00 0.00 43 1022.2
20260508170016 60 298 0.0 0.0 0.00 0.00 0.00 43 1022.2
20260508164514 61 360 0.0 0.0 0.00 0.00 0.00 43 1022.1
20260508161511 62 299 0.0 0.0 0.00 0.00 0.00 42 1022.1
20260508160025 63 360 0.0 0.0 0.00 0.00 0.00 40 1022.1
20260508154511 64 360 0.0 0.0 0.00 0.00 0.00 40 1022.2
20260508151516 64 313 0.0 0.0 0.00 0.00 0.00 37 1022.2
20260508150020 64 360 0.0 0.0 0.00 0.00 0.00 36 1022.2
20260508144515 65 297 0.0 0.0 0.00 0.00 0.00 36 1022.2
20260508141510 65 269 0.0 0.0 0.00 0.00 0.00 36 1022.2
20260508140016 65 237 0.0 0.0 0.00 0.00 0.00 37 1022.2
20260508134521 66 360 0.0 0.0 0.00 0.00 0.00 37 1022.3
20260508131516 67 288 0.0 0.0 0.00 0.00 0.00 34 1022.3
20260508130017 67 360 0.0 0.0 0.00 0.00 0.00 29 1022.3
20260508124515 65 203 0.0 0.0 0.00 0.00 0.00 32 1022.3
20260508121523 67 321 0.0 0.0 0.00 0.00 0.00 27 1022.3
20260508120007 67 32 0.0 0.0 0.00 0.00 0.00 27 1022.4
20260508114506 67 360 0.0 0.0 0.00 0.00 0.00 26 1022.4
20260508111510 66 360 0.0 0.0 0.00 0.00 0.00 28 1022.4
20260508110010 65 184 0.0 0.0 0.00 0.00 0.00 27 1022.5
20260508104507 66 159 0.0 0.0 0.00 0.00 0.00 28 1022.4
20260508101502 65 124 0.0 0.0 0.00 0.00 0.00 28 1022.5
20260508100001 65 279 0.0 0.0 0.00 0.00 0.00 29 1022.5
20260508094611 65 265 0.0 0.0 0.00 0.00 0.00 29 1022.4
20260508091605 64 360 0.0 0.0 0.00 0.00 0.00 30 1022.5
20260508090059 64 26 0.0 0.0 0.00 0.00 0.00 30 1022.6
20260508084557 63 28 0.0 0.0 0.00 0.00 0.00 29 1022.5
20260508081528 62 355 0.0 0.0 0.00 0.00 0.00 29 1022.6
20260508080025 61 71 0.0 0.0 0.00 0.00 0.00 31 1022.6
20260508074529 61 76 0.0 0.0 0.00 0.00 0.00 29 1022.5
20260508071551 58 51 0.0 0.0 0.00 0.00 0.00 31 1022.5
20260508070045 56 130 0.0 0.0 0.00 0.00 0.00 40 1022.5
20260508064600 54 129 0.0 0.0 0.00 0.00 0.00 49 1022.4
20260508061542 52 128 0.0 0.0 0.00 0.00 0.00 55 1022.1
20260508060034 45 128 0.0 0.0 0.00 0.00 0.00 59 1022.1
20260508054529 42 129 0.0 0.0 0.00 0.00 0.00 65 1022.0
20260508051525 36 129 0.0 0.0 0.00 0.00 0.00 79 1021.8
20260508050024 34 129 0.0 0.0 0.00 0.00 0.00 80 1021.7
20260508044523 34 128 0.0 0.0 0.00 0.00 0.00 81 1021.6
20260508041519 32 128 0.0 0.0 0.00 0.00 0.00 83 1021.5
20260508040019 31 129 0.0 0.0 0.00 0.00 0.00 83 1021.5
20260508034518 31 128 0.0 0.0 0.00 0.00 0.00 83 1021.4
20260508031511 31 128 0.0 0.0 0.00 0.00 0.00 82 1021.2
20260508030012 31 128 0.0 0.0 0.00 0.00 0.00 82 1021.1
20260508024516 32 128 0.0 0.0 0.00 0.00 0.00 82 1021.1
20260508021511 32 128 0.0 0.0 0.00 0.00 0.00 81 1021.1
20260508020013 32 130 0.0 0.0 0.00 0.00 0.00 80 1021.0
20260508014507 32 129 0.0 0.0 0.00 0.00 0.00 80 1021.0
20260508011505 32 129 0.0 0.0 0.00 0.00 0.00 78 1020.8
20260508010005 33 129 0.0 0.0 0.00 0.00 0.00 78 1020.7
20260508004503 33 128 0.0 0.0 0.00 0.00 0.00 77 1020.7
20260508001500 33 129 0.0 0.0 0.00 0.00 0.00 76 1020.4
20260508000058 34 128 0.0 0.0 0.00 0.00 0.00 76 1020.4
20260507234558 34 130 0.0 0.0 0.00 0.00 0.00 75 1020.1
20260507233154 34 128 0.0 0.0 0.00 0.00 0.00 74 1019.9
20260507231606 35 129 0.0 0.0 0.00 0.00 0.00 74 1019.9
20260507230053 35 129 0.0 0.0 0.00 0.00 0.00 73 1019.7
20260507224558 36 130 0.0 0.0 0.00 0.00 0.00 72 1019.8
20260507223150 36 128 0.0 0.0 0.00 0.00 0.00 71 1019.6
20260507221553 37 129 0.0 0.0 0.00 0.00 0.00 71 1019.6
20260507220051 37 128 0.0 0.0 0.00 0.00 0.00 69 1019.6
20260507214601 38 128 0.0 0.0 0.00 0.00 0.00 69 1019.6
20260507213149 38 129 0.0 0.0 0.00 0.00 0.00 67 1019.5
20260507211545 39 128 0.0 0.0 0.00 0.00 0.00 66 1019.4
20260507210051 39 360 0.0 0.0 0.00 0.00 0.00 64 1019.3
20260507204555 40 240 0.0 0.0 0.00 0.00 0.00 63 1019.1
20260507203142 41 241 0.0 0.0 0.00 0.00 0.00 61 1019.0
20260507201541 42 242 0.0 0.0 0.00 0.00 0.00 59 1019.0
20260507200039 44 242 0.0 0.0 0.00 0.00 0.00 56 1019.0
20260507194537 45 360 0.0 0.0 0.00 0.00 0.00 53 1018.8
20260507193135 48 240 0.0 0.0 0.00 0.00 0.00 49 1018.5
20260507191547 49 241 0.0 0.0 0.00 0.00 0.00 46 1018.4
20260507190046 50 240 0.0 0.0 0.00 0.00 0.00 41 1018.1
20260507184544 51 241 0.0 0.0 0.00 0.00 0.00 39 1017.8
20260507183143 52 267 0.0 0.0 0.00 0.00 0.00 39 1017.6
20260507181530 53 290 0.0 0.0 0.00 0.00 0.00 38 1017.7
20260507180033 54 300 0.0 0.0 0.00 0.00 0.00 34 1017.5
20260507174534 54 302 0.0 0.0 0.00 0.00 0.00 36 1017.4